Effective Sunday, March 17, 2024, the National Weather Service National Data Buoy Center will discontinue its Dial-A-Buoy Interactive Voice Response system. For more information, see Service Change Notice 24-06 (PDF).

Station ALXN6 - 8311062 - Alexandria Bay, NY Image indicating link to RSS feed of recent meteorological observations for station ALXN6


Conditions at ALXN6 as of
(6:48 pm EST)
2348 GMT on 02/27/2024:
     

Click on the graph icon in the table below to see a time series plot of the last five days of that observation.

5-day plot - Atmospheric Pressure Atmospheric Pressure (PRES):29.62 in
5-day plot - Water Temperature Water Temperature (WTMP): 35.1 °F
NOS Water Level Observation Network Water Level
Previous observations
TIME
(EST)
5-day plot - Wind Direction
WDIR
 
5-day plot - Wind Speed
WSPD
kts
5-day plot - Wind Gust
GST
kts
5-day plot - Wave Height
WVHT
ft
5-day plot - Dominant Wave Period
DPD
sec
5-day plot - Average Wave Period
APD
sec
5-day plot - Mean Wave Direction
MWD
 
5-day plot - Atmospheric Pressure
PRES
in
5-day plot - Pressure Tendency
PTDY
in
5-day plot - Air Temperature
ATMP
°F
5-day plot - Water Temperature
WTMP
°F
5-day plot - Dew Point
DEWP
°F
5-day plot - Salinity
SAL
psu
5-day plot - Visibility
VIS
nmi
5-day plot - Tide (above MLLW)
TIDE
ft
2024-02-27 06:42 pm-------29.62-- 35.1----
2024-02-27 06:36 pm-------29.61-- 35.1----
2024-02-27 06:30 pm-------29.61-- 35.1----
2024-02-27 06:24 pm-------29.61-- 35.1----
2024-02-27 06:18 pm-------29.61-- 35.1----
2024-02-27 06:12 pm-------29.61-- 35.1----
2024-02-27 06:06 pm-------29.61-- 35.1----
2024-02-27 06:00 pm-------29.61-0.02------
2024-02-27 05:54 pm-------29.62-------
2024-02-27 05:48 pm-------29.62-- 35.1----
2024-02-27 05:42 pm-------29.62-- 35.1----
2024-02-27 05:36 pm-------29.61-- 35.1----
2024-02-27 05:30 pm-------29.61-- 35.2----
2024-02-27 05:24 pm-------29.61-- 35.2----
2024-02-27 05:18 pm-------29.61-- 35.2----
2024-02-27 05:12 pm-------29.61-- 35.2----
2024-02-27 05:06 pm-------29.61-- 35.2----
2024-02-27 05:00 pm-------29.61-0.03- 35.1----
2024-02-27 04:54 pm-------29.61-- 35.1----
2024-02-27 04:48 pm-------29.61-- 35.1----
2024-02-27 04:42 pm-------29.61-- 35.1----
2024-02-27 04:36 pm-------29.62-- 35.2----
2024-02-27 04:30 pm-------29.61-- 35.2----
2024-02-27 04:24 pm-------29.61-- 35.2----
2024-02-27 04:18 pm-------29.61-- 35.2----
2024-02-27 04:12 pm-------29.61-- 35.2----
2024-02-27 04:06 pm-------29.61-- 35.2----
2024-02-27 04:00 pm-------29.62-0.05- 35.2----
2024-02-27 03:54 pm-------29.62-- 35.2----
2024-02-27 03:48 pm-------29.62-- 35.2----
2024-02-27 03:42 pm-------29.62-- 35.2----
2024-02-27 03:36 pm-------29.62-- 35.4----
2024-02-27 03:30 pm-------29.62-- 35.4----
2024-02-27 03:24 pm-------29.62-- 35.4----
2024-02-27 03:18 pm-------29.62-- 35.2----
2024-02-27 03:12 pm-------29.62-- 35.2----
2024-02-27 03:06 pm-------29.63-- 35.2----
2024-02-27 03:00 pm-------29.63-0.08- 35.2----
2024-02-27 02:54 pm-------29.63-- 35.2----
2024-02-27 02:48 pm-------29.63-- 35.2----
2024-02-27 02:42 pm-------29.64-- 35.2----
2024-02-27 02:36 pm-------29.64-- 35.1----
2024-02-27 02:30 pm-------29.64-- 35.2----
2024-02-27 02:24 pm-------29.64-- 35.2----
2024-02-27 02:18 pm-------29.64-- 35.2----
2024-02-27 02:12 pm-------29.64-- 35.2----
2024-02-27 02:06 pm-------29.64-- 35.2----
2024-02-27 02:00 pm-------29.64-0.10- 35.2----
2024-02-27 01:54 pm-------29.64-- 35.2----
2024-02-27 01:48 pm-------29.65-- 35.2----
2024-02-27 01:42 pm-------29.65-- 35.4----
2024-02-27 01:36 pm-------29.65-- 35.4----
2024-02-27 01:30 pm-------29.65-- 35.4----
2024-02-27 01:24 pm-------29.65-- 35.2----
2024-02-27 01:18 pm-------29.65-- 35.1----
2024-02-27 01:12 pm-------29.65-- 35.2----
2024-02-27 01:06 pm-------29.66-- 35.4----
2024-02-27 01:00 pm-------29.67-0.08- 35.6----
2024-02-27 12:54 pm-------29.67-- 35.4----
2024-02-27 12:48 pm-------29.68-- 35.6----
2024-02-27 12:42 pm-------29.69-- 35.6----
2024-02-27 12:36 pm-------29.69-- 35.8----
2024-02-27 12:30 pm-------29.70-- 35.6----
2024-02-27 12:24 pm-------29.70-- 35.6----
2024-02-27 12:18 pm-------29.70-- 35.4----
2024-02-27 12:12 pm-------29.70-- 35.6----
2024-02-27 12:06 pm-------29.70-- 35.6----
2024-02-27 12:00 pm-------29.71-0.06- 35.4----
2024-02-27 11:54 am-------29.71-- 35.4----
2024-02-27 11:48 am-------29.72-- 35.4----
2024-02-27 11:42 am-------29.72-- 35.4----
2024-02-27 11:36 am-------29.72-- 35.4----
2024-02-27 11:30 am-------29.72-- 35.4----
2024-02-27 11:24 am-------29.72-- 35.4----
2024-02-27 11:18 am-------29.72-- 35.4----
2024-02-27 11:12 am-------29.73-- 35.2----
2024-02-27 11:06 am-------29.73-- 35.4----
2024-02-27 11:00 am-------29.74-0.05- 35.2----
2024-02-27 10:54 am-------29.74-- 35.2----
2024-02-27 10:48 am-------29.74-- 35.2----
2024-02-27 10:42 am-------29.75-- 35.2----
2024-02-27 10:36 am-------29.75-- 35.2----
2024-02-27 10:30 am-------29.75-- 35.2----
2024-02-27 10:24 am-------29.75-- 35.2----
2024-02-27 10:18 am-------29.75-- 35.2----
2024-02-27 10:12 am-------29.75-- 35.2----
2024-02-27 10:06 am-------29.75-- 35.1----
2024-02-27 10:00 am-------29.75-0.04- 35.2----
2024-02-27 09:54 am-------29.75-- 35.2----
2024-02-27 09:48 am-------29.75-- 35.2----
2024-02-27 09:42 am-------29.76-- 35.2----
2024-02-27 09:36 am-------29.76-- 35.2----
2024-02-27 09:30 am-------29.76-- 35.1----
2024-02-27 09:24 am-------29.77-- 35.1----
2024-02-27 09:18 am-------29.77-- 35.1----
2024-02-27 09:12 am-------29.77-- 35.1----
2024-02-27 09:06 am-------29.77-- 35.1----
2024-02-27 09:00 am-------29.78-0.02- 35.1----
2024-02-27 08:54 am-------29.78-- 35.1----
2024-02-27 08:48 am-------29.78-- 35.1----
2024-02-27 08:42 am-------29.78-- 34.9----
2024-02-27 08:36 am-------29.78-- 34.9----
2024-02-27 08:30 am-------29.78-- 34.9----
2024-02-27 08:24 am-------29.78-- 34.9----
2024-02-27 08:18 am-------29.78-- 34.9----
2024-02-27 08:12 am-------29.79-- 34.7----
2024-02-27 08:06 am-------29.79-- 34.7----
2024-02-27 08:00 am-------29.79-0.02- 34.7----
2024-02-27 07:54 am-------29.79-- 34.7----
2024-02-27 07:48 am-------29.79-- 34.7----
2024-02-27 07:42 am-------29.80-- 34.7----
2024-02-27 07:36 am-------29.80-- 34.7----
2024-02-27 07:30 am-------29.80-- 34.7----
2024-02-27 07:24 am-------29.80-- 34.7----
2024-02-27 07:18 am-------29.80-- 34.7----
2024-02-27 07:12 am-------29.79-- 34.7----
2024-02-27 07:06 am-------29.79-- 34.7----
2024-02-27 07:00 am-------29.79-0.03- 34.7----
2024-02-27 06:54 am-------29.79-- 34.7----
2024-02-27 06:48 am-------29.79-- 34.7----
2024-02-27 06:42 am-------29.79-- 34.7----
2024-02-27 06:36 am-------29.78-- 34.7----
2024-02-27 06:30 am-------29.79-- 34.7----
2024-02-27 06:24 am-------29.79-- 34.7----
2024-02-27 06:18 am-------29.79-- 34.7----
2024-02-27 06:12 am-------29.79-- 34.7----
2024-02-27 06:06 am-------29.79-- 34.7----
2024-02-27 06:00 am-------29.80-0.03- 34.7----
2024-02-27 05:54 am-------29.80-- 34.7----
2024-02-27 05:48 am-------29.80-- 34.7----
2024-02-27 05:42 am-------29.80-- 34.7----
2024-02-27 05:36 am-------29.80-- 34.7----
2024-02-27 05:30 am-------29.80-- 34.7----
2024-02-27 05:24 am-------29.80-- 34.7----
2024-02-27 05:18 am-------29.80-- 34.7----
2024-02-27 05:12 am-------29.80-- 34.7----
2024-02-27 05:06 am-------29.80-- 34.7----
2024-02-27 05:00 am-------29.81-0.06- 34.7----
2024-02-27 04:54 am-------29.81-- 34.7----
2024-02-27 04:48 am-------29.81-- 34.7----
2024-02-27 04:42 am-------29.81-- 34.7----
2024-02-27 04:36 am-------29.81-- 34.7----
2024-02-27 04:30 am-------29.81-- 34.7----
2024-02-27 04:24 am-------29.81-- 34.7----
2024-02-27 04:18 am-------29.81-- 34.7----
2024-02-27 04:12 am-------29.82-- 34.7----
2024-02-27 04:06 am-------29.82-- 34.7----
2024-02-27 04:00 am-------29.82-0.06- 34.7----
2024-02-27 03:54 am-------29.82-- 34.7----
2024-02-27 03:48 am-------29.82-- 34.7----
2024-02-27 03:42 am-------29.83-- 34.7----
2024-02-27 03:36 am-------29.83-- 34.7----
2024-02-27 03:30 am-------29.83-- 34.7----
2024-02-27 03:24 am-------29.83-- 34.7----
2024-02-27 03:18 am-------29.83-- 34.7----
2024-02-27 03:12 am-------29.83-- 34.7----
2024-02-27 03:06 am-------29.83-- 34.7----
2024-02-27 03:00 am-------29.83-0.07- 34.7----
2024-02-27 02:54 am-------29.83-- 34.7----
2024-02-27 02:48 am-------29.83-- 34.7----
2024-02-27 02:42 am-------29.84-- 34.7----
2024-02-27 02:36 am-------29.84-- 34.7----
2024-02-27 02:30 am-------29.85-- 34.7----
2024-02-27 02:24 am-------29.85-- 34.7----
2024-02-27 02:18 am-------29.85-- 34.7----
2024-02-27 02:12 am-------29.86-- 34.7----
2024-02-27 02:06 am-------29.86-- 34.7----
2024-02-27 02:00 am-------29.86-0.05- 34.7----
2024-02-27 01:54 am-------29.87-- 34.7----
2024-02-27 01:48 am-------29.87-- 34.7----
2024-02-27 01:42 am-------29.87-- 34.7----
2024-02-27 01:36 am-------29.87-- 34.7----
2024-02-27 01:30 am-------29.88-- 34.7----
2024-02-27 01:24 am-------29.88-- 34.7----
2024-02-27 01:18 am-------29.88-- 34.7----
2024-02-27 01:12 am-------29.88-- 34.7----
2024-02-27 01:06 am-------29.88-- 34.7----
2024-02-27 01:00 am-------29.88-0.06- 34.7----
2024-02-27 12:54 am-------29.88-- 34.7----
2024-02-27 12:48 am-------29.88-- 34.7----
2024-02-27 12:42 am-------29.88-- 34.7----
2024-02-27 12:36 am-------29.89-- 34.7----
2024-02-27 12:30 am-------29.89-- 34.7----
2024-02-27 12:24 am-------29.89-- 34.7----
2024-02-27 12:18 am-------29.89-- 34.7----
2024-02-27 12:12 am-------29.89-- 34.7----
2024-02-27 12:06 am-------29.90-- 34.7----
2024-02-27 12:00 am-------29.90-0.06- 34.7----
2024-02-26 11:54 pm-------29.90-- 34.7----
2024-02-26 11:48 pm-------29.90-- 34.7----
2024-02-26 11:42 pm-------29.90-- 34.7----
2024-02-26 11:36 pm-------29.90-- 34.7----
2024-02-26 11:30 pm-------29.91-- 34.7----
2024-02-26 11:24 pm-------29.91-- 34.7----
2024-02-26 11:18 pm-------29.91-- 34.7----
2024-02-26 11:12 pm-------29.91-- 34.7----
2024-02-26 11:06 pm-------29.91-- 34.7----
2024-02-26 11:00 pm-------29.92-0.04- 34.7----
2024-02-26 10:54 pm-------29.92-- 34.7----
2024-02-26 10:48 pm-------29.92-- 34.7----
2024-02-26 10:42 pm-------29.92-- 34.7----
2024-02-26 10:36 pm-------29.92-- 34.7----
2024-02-26 10:30 pm-------29.92-- 34.7----
2024-02-26 10:24 pm-------29.93-- 34.7----
2024-02-26 10:18 pm-------29.93-- 34.7----
2024-02-26 10:12 pm-------29.93-- 34.7----
2024-02-26 10:06 pm-------29.93-- 34.7----
2024-02-26 10:00 pm-------29.94-0.04- 34.7----
2024-02-26 09:54 pm-------29.94-- 34.7----
2024-02-26 09:48 pm-------29.94-- 34.7----
2024-02-26 09:42 pm-------29.94-- 34.7----
2024-02-26 09:36 pm-------29.94-- 34.7----
2024-02-26 09:30 pm-------29.95-- 34.7----
2024-02-26 09:24 pm-------29.95-- 34.7----
2024-02-26 09:18 pm-------29.95-- 34.7----
2024-02-26 09:12 pm-------29.95-- 34.7----
2024-02-26 09:06 pm-------29.96-- 34.7----
2024-02-26 09:00 pm-------29.96-0.01- 34.7----
2024-02-26 08:54 pm-------29.96-- 34.7----
2024-02-26 08:48 pm-------29.96-- 34.7----
2024-02-26 08:42 pm-------29.96-- 34.7----
2024-02-26 08:36 pm-------29.96-- 34.7----
2024-02-26 08:30 pm-------29.96-- 34.7----
2024-02-26 08:24 pm-------29.96-- 34.7----
2024-02-26 08:18 pm-------29.96-- 34.7----
2024-02-26 08:12 pm-------29.96-- 34.7----
2024-02-26 08:06 pm-------29.96-- 34.7----
2024-02-26 08:00 pm-------29.95-0.01------
2024-02-26 07:54 pm-------29.96-------
2024-02-26 07:48 pm-------29.96-- 34.7----
2024-02-26 07:42 pm-------29.96-- 34.7----
2024-02-26 07:36 pm-------29.97-- 34.7----
2024-02-26 07:30 pm-------29.97-------
2024-02-26 07:24 pm-------29.98-------
2024-02-26 07:18 pm-------29.97-- 34.7----
2024-02-26 07:12 pm-------29.98-- 34.7----
2024-02-26 07:06 pm-------29.97-- 34.7----
2024-02-26 07:00 pm-------29.98+0.01- 34.7----
2024-02-26 06:54 pm-------29.98-- 34.7----